Weather observations for the past three days for
Bishop, Bishop Airport
Imperial (Metric)
Date Time (pdt) Wind (mph) Vis. (mi.) Weather Sky Cond. Temperature (ºF) Relative Humidity Wind Chill (°F) Heat Index (°F) Pressure Precipitation (in)
Air Dwpt 6 hour altimeter (in) sea level (mb) 1 hr 3 hr 6 hr
Max. Min.
10 05:56 Calm 10.00 Fair CLR 42.1 30.9 65% 30.07 1014.4
10 04:56 N 5 10.00 Fair CLR 46 30 64.9 44.1 54% 44 30.06 1013.8
10 03:56 W 8 10.00 Fair CLR 48.9 30.9 50% 46 30.05 1013.3
10 02:56 N 6 10.00 Fair CLR 46.9 30.9 54% 45 30.05 1013.3
10 01:56 NW 8 10.00 Fair CLR 55 30 38% 30.04 1012.6
10 00:56 Calm 10.00 Fair CLR 53.1 32 45% 30.04 1012.9
09 23:56 NW 3 10.00 Fair CLR 63 32 31% 30.03 1012.1
09 22:56 N 5 10.00 Fair CLR 60.1 30 89.1 57 32% 30.02 1011.9
09 21:56 NW 3 10.00 Fair CLR 64.9 28.9 26% 30 1011.2
09 20:56 W 3 10.00 Fair CLR 73.9 25 16% 29.97 1009.9
09 19:56 Calm 10.00 Fair CLR 79 28.9 16% 78 29.94 1009.0
09 18:56 SW 6 10.00 Fair CLR 86 27 12% 83 29.92 1008.7
09 17:56 SW 6 10.00 Fair CLR 88 24.1 10% 84 29.92 1008.7
09 16:56 W 7 10.00 Fair CLR 89.1 24.1 90 81 9% 85 29.93 1008.9
09 15:56 W 9 10.00 Fair CLR 89.1 24.1 9% 85 29.94 1009.3
09 14:56 Calm 10.00 Fair CLR 88 26.1 10% 84 29.97 1010.0
09 13:56 SW 9 10.00 Fair CLR 87.1 26.1 11% 84 29.99 1010.9
09 12:56 Calm 10.00 Fair CLR 84 26.1 12% 81 30.01 1011.4
09 11:56 W 6 10.00 Fair CLR 82.9 26.1 12% 80 30.04 1012.5
09 10:56 W 8 10.00 Fair CLR 81 28.9 81 48.9 15% 79 30.06 1012.9
09 09:56 Calm 10.00 Fair CLR 79 28.9 16% 78 30.06 1013.1
09 08:56 N 8 10.00 Fair CLR 75 32 21% 76 30.07 1013.8
09 07:56 Calm 10.00 Fair CLR 64.9 34 32% 30.08 1014.1
09 06:56 NW 3 10.00 Fair CLR 55 34 45% 30.08 1014.2
09 05:56 W 6 10.00 Fair CLR 52 30.9 45% 30.06 1013.3
09 04:56 Calm 10.00 Fair CLR 53.1 28.9 69.1 53.1 40% 30.04 1012.7
09 03:56 W 8 10.00 Fair CLR 55 28 36% 30.03 1012.4
09 02:56 W 5 10.00 Fair CLR 57 30 36% 30.03 1012.2
09 01:56 NW 7 10.00 Fair CLR 59 26.1 28% 30.03 1012.1
09 00:56 SW 3 10.00 Fair CLR 63 23 22% 30.03 1011.9
08 23:56 NW 5 10.00 Fair CLR 63 25 24% 30.02 1011.5
08 22:56 W 8 10.00 Fair CLR 68 21.9 90 66.9 17% 30.01 1011.1
08 21:56 N 7 10.00 Fair CLR 68 30.9 25% 29.99 1010.9
08 20:56 N 10 10.00 Fair CLR 69.1 33.1 26% 29.97 1010.2
08 19:56 NW 13 10.00 Fair CLR 78.1 21.9 12% 77 29.93 1009.1
08 18:56 S 6 10.00 Fair CLR 84.9 27 12% 82 29.91 1008.4
08 17:56 Vrbl 7 10.00 Fair CLR 89.1 18 7% 85 29.91 1008.8
08 16:56 Calm 10.00 Fair CLR 88 12.9 90 81 6% 84 29.92 1008.8
08 15:56 Vrbl 3 10.00 Fair CLR 89.1 14 6% 85 29.94 1009.3
08 14:56 Vrbl 5 10.00 Fair CLR 88 12 6% 84 29.96 1009.9
08 13:56 SE 3 10.00 Fair CLR 87.1 12 6% 84 29.98 1010.7
08 12:56 Vrbl 5 10.00 Fair CLR 84 10 6% 81 30.01 1011.4
08 11:56 Calm 10.00 Fair CLR 84 16 8% 81 30.03 1012.0
08 10:56 E 3 10.00 Fair CLR 81 23 81 44.1 12% 79 30.05 1012.9
08 09:56 Vrbl 5 10.00 Fair CLR 75.9 27 16% 76 30.07 1013.6
08 08:56 Vrbl 5 10.00 Fair CLR 70 28.9 22% 30.08 1014.0
08 07:56 N 7 10.00 Fair CLR 62.1 32 32% 30.08 1014.5
08 06:56 NW 7 10.00 Fair CLR 54 35.1 49% 30.07 1014.1
08 05:56 NW 7 10.00 Fair CLR 45 36 71% 42 30.06 1013.9
08 04:56 NW 9 10.00 Fair CLR 52 37 64.9 50 57% 30.05 1013.2
08 03:56 NW 7 10.00 Fair CLR 52 36 55% 30.05 1013.2
08 02:56 NW 7 10.00 Fair CLR 55.9 36 47% 30.05 1013.1
08 01:56 N 5 10.00 Fair CLR 57 37.9 49% 30.05 1013.2
08 00:56 Calm 10.00 Fair CLR 61 37 41% 30.06 1013.2
07 23:56 NW 3 10.00 Fair CLR 63 39 41% 30.05 1012.9
07 22:56 N 3 10.00 Fair CLR 64.9 39 87.1 64 39% 30.03 1012.5
07 21:56 N 10 10.00 Fair CLR 70 39 32% 30.02 1012.0
07 20:56 NW 9 10.00 Fair CLR 72 36 27% 30 1011.3
07 19:56 N 9 10.00 Fair CLR 75.9 32 20% 76 29.96 1010.6
07 18:56 S 3 10.00 Fair CLR 84 28.9 13% 81 29.94 1009.9
07 17:56 Vrbl 3 10.00 Fair CLR 86 21.9 9% 83 29.94 1010.2
07 16:56 Vrbl 7 10.00 Fair CLR 87.1 23 88 77 9% 84 29.95 1010.0
07 15:56 S 6 10.00 Fair CLR 87.1 21.9 9% 84 29.96 1010.4
07 14:56 Vrbl 6 10.00 Fair CLR 87.1 19.9 8% 84 29.98 1011.1
07 13:56 Calm 10.00 Fair CLR 84 17.1 8% 81 30.01 1012.1
07 12:56 NE 5 10.00 Fair CLR 82 14 8% 80 30.04 1013.1
07 11:56 Calm 10.00 Fair CLR 79 25 14% 78 30.07 1014.1
07 10:56 Vrbl 3 10.00 Fair CLR 77 28.9 77 39.9 17% 77 30.09 1014.8
07 09:56 W 5 10.00 Fair CLR 73 33.1 23% 30.11 1015.1
07 08:56 N 3 10.00 Fair CLR 66.9 35.1 31% 30.13 1016.0
07 07:56 Calm 10.00 Fair CLR 57.9 36 44% 30.14 1017.2
07 06:56 Calm 10.00 Fair CLR 48 35.1 61% 30.14 1017.0
Date Time (pdt) Wind (mph) Vis. (mi.) Weather Sky Cond. Air Dwpt Max. Min. Relative Humidity Wind Chill (°F) Heat Index (°F) altimeter (in) sea level (mb) 1 hr 3 hr 6 hr
6 hour
Temperature (ºF) Pressure Precipitation (in)